Zurück zum Katalog

FENGYUN 1C DEB

AktivPO
NORAD 38789·DEBRIS·🇨🇳 China

Gestartet May 10, 1999 von Taiyuan Satellite Launch Center

Loading…

Nächste Überflüge (nächste 24 Stunden)

TLE

AlterndSource: Space-Track

Epoche: Sep 7, 2026, 13:11 UTC

1 38789U 99025EUD 26250.54970289  .00001672  00000-0  36640-3 0  9997
2 38789  98.8280 153.6228 0202099 299.1213 184.1842 14.47319053657326

Verfolge FENGYUN 1C DEB in Echtzeit mit AllMySat

Download on the App Store